Chicago Midway, IL

8:08 AM CDT on March 24, 2017 (GMT -0500)
Chicago-Midway

Weather History for KMDW - June, 2013

Change the Weather History Date:

Sunday, June 23, 2013

  Actual Average Record
Temperature  
Mean Temperature 79 °F 74 °F  
Max Temperature 89 °F 82 °F 99 °F (1930)
Min Temperature 69 °F 65 °F 46 °F (1972)
Degree Days  
Heating Degree Days 0 0  
Month to date heating degree days 36 29  
Since 1 June heating degree days 36 29  
Since 1 July heating degree days 5828 5988  
Cooling Degree Days 14 9  
Month to date cooling degree days 112 139  
Year to date cooling degree days 218 213  
Since 1 June cooling degree days 112 139  
Growing Degree Days 28 (Base 50)    
Moisture  
Dew Point 66 °F    
Average Humidity 66    
Maximum Humidity 84    
Minimum Humidity 40    
Precipitation  
Precipitation T in 0.12 in 2.20 in (1931)
Month to date precipitation 2.20 3.23  
Year to date precipitation 19.79 17.72  
Sea Level Pressure  
Sea Level Pressure 29.98 in    
Wind  
Wind Speed 10 mph (SSW)    
Max Wind Speed 24 mph    
Max Gust Speed 33 mph    
Visibility 10 miles    
Events Rain , Thunderstorm    
T = Trace of Precipitation, MM = Missing Value Source: NWS Daily Summary

Daily Weather History Graph

Daily Weather History Graph

Search for Another Location

Airport or City:

Trip Planner

Search our weather history database for the weather conditions in past years. The results will help you decide how hot, cold, wet, or windy it might be!

Date:

Astronomy

Jun. 23, 2013 Rise Set
Actual Time 5:16 AM CDT 8:29 PM CDT
Civil Twilight 4:42 AM CDT 9:04 PM CDT
Nautical Twilight 3:58 AM CDT 9:48 PM CDT
Astronomical Twilight 3:05 AM CDT 10:41 PM CDT
Moon 8:40 PM CDT (6/23) 5:34 AM CDT (6/23)
Length of Visible Light 16h 21m
Length of Day
15h 12m
Full, 100% of the Moon is Illuminated
Jun 23
Full
Jun 29
Last Quarter
Jul 8
New
Jul 15
First Quarter
Jul 22
Full

Hourly Weather History & Observations

Time (CDT) Temp. Heat Index Dew Point Humidity Pressure Visibility Wind Dir Wind Speed Gust Speed Precip Events Conditions
12:51 AM 70.0 °F - 64.0 °F 81% 30.01 in 10.0 mi SSW 6.9 mph - N/A   Mostly Cloudy
1:51 AM 70.0 °F - 64.0 °F 81% 29.99 in 10.0 mi SSW 5.8 mph - N/A   Mostly Cloudy
2:51 AM 70.0 °F - 64.0 °F 81% 29.98 in 10.0 mi SSW 6.9 mph - N/A   Mostly Cloudy
3:51 AM 70.0 °F - 63.0 °F 78% 30.03 in 10.0 mi SW 6.9 mph - N/A   Mostly Cloudy
4:51 AM 69.1 °F - 63.0 °F 81% 30.01 in 10.0 mi SSW 4.6 mph - N/A   Mostly Cloudy
5:51 AM 69.1 °F - 63.0 °F 81% 30.03 in 10.0 mi SSW 4.6 mph - N/A   Overcast
6:51 AM 69.1 °F - 64.0 °F 84% 30.02 in 10.0 mi SSW 5.8 mph - N/A   Mostly Cloudy
7:51 AM 73.0 °F - 64.0 °F 73% 29.99 in 10.0 mi SSE 8.1 mph - N/A   Mostly Cloudy
8:51 AM 75.9 °F - 63.0 °F 64% 29.98 in 10.0 mi South 11.5 mph 19.6 mph N/A   Mostly Cloudy
9:51 AM 78.1 °F - 64.0 °F 62% 29.98 in 10.0 mi South 12.7 mph 21.9 mph N/A   Mostly Cloudy
10:51 AM 81.0 °F 82.2 °F 63.0 °F 54% 29.99 in 10.0 mi SW 10.4 mph - N/A   Mostly Cloudy
11:51 AM 84.0 °F 85.4 °F 64.0 °F 51% 30.00 in 10.0 mi SSW 12.7 mph 17.3 mph N/A   Mostly Cloudy
12:51 PM 86.0 °F 88.8 °F 66.9 °F 53% 29.99 in 10.0 mi South 11.5 mph 16.1 mph N/A   Mostly Cloudy
1:51 PM 87.1 °F 89.9 °F 66.9 °F 51% 29.96 in 10.0 mi SW 13.8 mph 19.6 mph N/A   Mostly Cloudy
2:51 PM 84.9 °F 88.2 °F 68.0 °F 57% 29.95 in 10.0 mi SSW 13.8 mph 21.9 mph N/A   Mostly Cloudy
3:51 PM 88.0 °F 90.7 °F 66.9 °F 49% 29.92 in 10.0 mi SSW 13.8 mph 19.6 mph N/A   Mostly Cloudy
4:29 PM 87.8 °F 91.4 °F 68.0 °F 52% 29.96 in 10.0 mi South 23.0 mph 33.4 mph N/A Thunderstorm Thunderstorm
4:51 PM 81.0 °F 84.4 °F 70.0 °F 69% 29.93 in 10.0 mi South 12.7 mph 21.9 mph 0.00 in Rain , Thunderstorm Light Thunderstorms and Rain
5:51 PM 80.1 °F 82.7 °F 68.0 °F 67% 29.96 in 10.0 mi SSW 11.5 mph - 0.00 in Rain , Thunderstorm Light Thunderstorms and Rain
6:20 PM 78.8 °F - 69.8 °F 74% 29.98 in 10.0 mi SW 3.5 mph - 0.00 in   Overcast
6:51 PM 80.1 °F 82.9 °F 69.1 °F 69% 29.94 in 10.0 mi South 9.2 mph - 0.00 in   Overcast
7:51 PM 80.1 °F 82.7 °F 68.0 °F 67% 29.92 in 10.0 mi SSW 5.8 mph - 0.00 in   Overcast
8:51 PM 80.1 °F 82.1 °F 66.0 °F 62% 29.93 in 10.0 mi SSW 8.1 mph - N/A   Overcast
9:51 PM 78.1 °F - 68.0 °F 71% 29.97 in 10.0 mi South 11.5 mph - N/A   Overcast
10:51 PM 77.0 °F - 68.0 °F 74% 29.99 in 10.0 mi SSW 9.2 mph - N/A   Overcast
11:51 PM 75.9 °F - 66.9 °F 74% 29.98 in 10.0 mi SSW 8.1 mph - N/A   Overcast